Tracking 18850 objects as of 22-Nov-2017
HD Live streaming from Space Station
objects crossing your sky now

DELTA 2 R/B

Track DELTA 2 R/B now!
10-day predictions


NORAD ID: 20571
Int'l Code: 1990-034B
Perigee: 492.3 km
Apogee: 1,226.7 km
Inclination: 22.8 °
Period: 102.0 minutes
Semi major axis: 7230 km
RCS: 10.13 m2 (large)
Launch date: April 13, 1990
Source: United States (US)
Launch site: AIR FORCE EASTERN TEST RANGE (AFETR)

Note: This is a ROCKET BODY
aabbcc
Your satellite tracking list
Your tracking list is empty




NASA's NSSDC Master Catalog

Two Line Element Set (TLE):
1 20571U 90034B   17325.96520391 +.00000930 +00000-0 +89340-4 0  9994
2 20571 022.7501 319.6153 0507850 280.1763 074.1816 14.12041262414856
Source of the keplerian elements: AFSPC